Location: Coed Ely
(51.5661°N, 3.4150°W)
Time: 02:48:02
(UTC+00:00)

Cosmos 1812 Rocket - Pass Details

Date: 28 January 2021
Orbit: 604 x 633 km, 82.5° (Epoch: 24 February)

Event Time Altitude Azimuth Distance (km) Brightness Sun altitude
Rises 17:44:05 0° 353° (N) 2,904 6.9 -7.6°
Reaches altitude 10° 17:46:24 10° 358° (N) 1,989 6.0 -8.0°
Maximum altitude 17:50:41 50° 75° (ENE) 786 3.7 -8.6°
Drops below altitude 10° 17:54:54 10° 151° (SSE) 1,958 6.0 -9.2°
Sets 17:57:09 0° 157° (SSE) 2,854 6.9 -9.6°
